Location: ??
(35.5052°N, 139.7262°E)
Time: 18:20:48
(UTC+00:00)

SL-16 R/B - Pass Details

Date: 20 June 2021
Orbit: 985 x 1007 km, 99.5° (Epoch: 29 July)

Event Time Altitude Azimuth Distance (km) Brightness Sun altitude
Exits shadow 16:45:39 50° 187° (S) 1,246 2.6 -24.3°
Maximum altitude 16:47:20 74° 256° (WSW) 1,032 2.4 -24.1°
Drops below altitude 10° 16:53:31 10° 342° (NNW) 2,756 5.3 -23.4°
Sets 16:56:00 0° 344° (NNW) 3,705 6.1 -23.2°
